Weather History for Ellington Field, TX

Change the Weather History Date:

Thursday, January 9, 2014

  Actual Average Record
Temperature  
Mean Temperature 62 °F -  
Max Temperature 69 °F 62 °F 82 °F (1998)
Min Temperature 55 °F 44 °F 32 °F (1997)
Degree Days  
Heating Degree Days 3    
Growing Degree Days 12 (Base 50)    
Moisture  
Dew Point 58 °F    
Average Humidity 87    
Maximum Humidity 94    
Minimum Humidity 73    
Precipitation  
Precipitation 0.00 in - - ()
Sea Level Pressure  
Sea Level Pressure 30.15 in    
Wind  
Wind Speed 8 mph (SE)    
Max Wind Speed 16 mph    
Max Gust Speed 20 mph    
Visibility 9 miles    
Events      
Averages and records for this station are not official NWS values.
T = Trace of Precipitation, MM = Missing Value Source: NWS Daily Summary

Daily Weather History Graph

Daily Weather History Graph

Search for Another Location

Airport:

Trip Planner

Search our weather history database for the weather conditions in past years. The results will help you decide how hot, cold, wet, or windy it might be!

Date:

Astronomy

Jan. 09, 2014 Rise Set
Actual Time 7:16 AM CST 5:39 PM CST
Civil Twilight 6:50 AM CST 6:05 PM CST
Nautical Twilight 6:21 AM CST 6:34 PM CST
Astronomical Twilight 5:52 AM CST 7:03 PM CST
Moon 12:57 PM CST (1/9) 1:36 AM CST (1/9)
Length of Visible Light 11h 14m
Length of Day
10h 22m
Waxing Gibbous, 66% of the Moon is Illuminated
Jan 9
Waxing Gibbous
Jan 15
Full
Jan 23
Last Quarter
Jan 30
New
Feb 6
First Quarter

Hourly Weather History & Observations

Time (CST) Temp. Dew Point Humidity Pressure Visibility Wind Dir Wind Speed Gust Speed Precip Events Conditions
12:50 AM 55.4 °F 51.8 °F 88% 30.19 in 7.0 mi ESE 8.1 mph - N/A   Overcast
1:50 AM 57.2 °F 53.6 °F 88% 30.17 in 7.0 mi ESE 4.6 mph - N/A   Overcast
2:50 AM 57.2 °F 53.6 °F 88% 30.17 in 8.0 mi East 5.8 mph - N/A   Overcast
3:50 AM 57.2 °F 53.6 °F 88% 30.17 in 8.0 mi East 6.9 mph - N/A   Overcast
4:50 AM 57.2 °F 53.6 °F 88% 30.17 in 8.0 mi ESE 6.9 mph - N/A   Overcast
5:50 AM 55.4 °F 51.8 °F 88% 30.16 in 9.0 mi ESE 8.1 mph - N/A   Overcast
6:50 AM 55.4 °F 53.6 °F 94% 30.17 in 9.0 mi East 5.8 mph - N/A   Mostly Cloudy
7:50 AM 55.4 °F 53.6 °F 94% 30.18 in 10.0 mi East 8.1 mph - N/A   Mostly Cloudy
8:50 AM 60.8 °F 59.0 °F 94% 30.20 in 10.0 mi SE 5.8 mph - N/A   Mostly Cloudy
9:50 AM 62.6 °F 59.0 °F 88% 30.21 in 10.0 mi SSE 12.7 mph - N/A   Mostly Cloudy
10:50 AM 68.0 °F 62.6 °F 83% 30.19 in 10.0 mi SSE 13.8 mph - N/A   Mostly Cloudy
11:50 AM 69.8 °F 62.6 °F 78% 30.17 in 10.0 mi SSE 15.0 mph - N/A   Mostly Cloudy
12:50 PM 69.8 °F 60.8 °F 73% 30.13 in 10.0 mi SSE 16.1 mph - N/A   Mostly Cloudy
1:50 PM 69.8 °F 60.8 °F 73% 30.10 in 10.0 mi South 11.5 mph - N/A   Overcast
2:50 PM 69.8 °F 62.6 °F 78% 30.09 in 10.0 mi South 11.5 mph - N/A   Overcast
3:50 PM 68.0 °F 62.6 °F 83% 30.10 in 10.0 mi SSE 13.8 mph 19.6 mph N/A   Overcast
5:50 PM 66.2 °F 62.6 °F 88% 30.10 in 10.0 mi South 11.5 mph - N/A   Overcast
6:50 PM 66.2 °F 62.6 °F 88% 30.11 in 10.0 mi SSE 3.5 mph - N/A   Overcast
7:50 PM 64.4 °F 62.6 °F 94% 30.12 in 10.0 mi SSE 3.5 mph - N/A   Overcast
8:50 PM 62.6 °F 59.0 °F 88% 30.12 in 10.0 mi East 4.6 mph - N/A   Overcast
9:50 PM 59.0 °F 55.4 °F 88% 30.12 in 10.0 mi Calm Calm - N/A   Mostly Cloudy
10:50 PM 57.2 °F 53.6 °F 88% 30.12 in 5.0 mi Calm Calm - N/A   Mostly Cloudy
11:50 PM 57.2 °F 55.4 °F 94% 30.10 in 5.0 mi Calm Calm - N/A   Mostly Cloudy